����������;��������(kWh)
2017-07-24 00:00;90,2
2017-07-24 00:15;90,55
2017-07-24 00:30;90,15
2017-07-24 00:45;96,7
2017-07-24 01:00;101,2
2017-07-24 01:15;100,95
2017-07-24 01:30;93,35
2017-07-24 01:45;91,75
2017-07-24 02:00;92,75
2017-07-24 02:15;92,1
2017-07-24 02:30;92,2
2017-07-24 02:45;91,85
2017-07-24 03:00;91,75
2017-07-24 03:15;91,35
2017-07-24 03:30;93,15
2017-07-24 03:45;92,2
2017-07-24 04:00;91,9
2017-07-24 04:15;91,1
2017-07-24 04:30;92
2017-07-24 04:45;90,3
2017-07-24 05:00;90
2017-07-24 05:15;87,6
2017-07-24 05:30;89,25
2017-07-24 05:45;89,05
2017-07-24 06:00;86,9
2017-07-24 06:15;88
2017-07-24 06:30;83,45
2017-07-24 06:45;84,65
2017-07-24 07:00;88,7
2017-07-24 07:15;93,3
2017-07-24 07:30;154,4
2017-07-24 07:45;137,85
2017-07-24 08:00;129,45
2017-07-24 08:15;136,1
2017-07-24 08:30;137,05
2017-07-24 08:45;143,55
2017-07-24 09:00;88,45
2017-07-24 09:15;164,65
2017-07-24 09:30;165,55
2017-07-24 09:45;189,35
2017-07-24 10:00;201,1
2017-07-24 10:15;200,35
2017-07-24 10:30;208,2
2017-07-24 10:45;211,05
2017-07-24 11:00;223
2017-07-24 11:15;228,25
2017-07-24 11:30;236,6
2017-07-24 11:45;238,7
2017-07-24 12:00;250,95
2017-07-24 12:15;241,4
2017-07-24 12:30;245,4
2017-07-24 12:45;258,65
2017-07-24 13:00;249,15
2017-07-24 13:15;248,75
2017-07-24 13:30;248,75
2017-07-24 13:45;246,7
2017-07-24 14:00;244,9
2017-07-24 14:15;234,3
2017-07-24 14:30;226,35
2017-07-24 14:45;220,15
2017-07-24 15:00;208,05
2017-07-24 15:15;195,1
2017-07-24 15:30;182,4
2017-07-24 15:45;171,25
2017-07-24 16:00;165,7
2017-07-24 16:15;159,4
2017-07-24 16:30;151,95
2017-07-24 16:45;146,15
2017-07-24 17:00;147,1
2017-07-24 17:15;147,9
2017-07-24 17:30;146,3
2017-07-24 17:45;142,55
2017-07-24 18:00;140,1
2017-07-24 18:15;140,35
2017-07-24 18:30;139,75
2017-07-24 18:45;138,85
2017-07-24 19:00;133,4
2017-07-24 19:15;133,1
2017-07-24 19:30;127,9
2017-07-24 19:45;130,8
2017-07-24 20:00;125,25
2017-07-24 20:15;126,35
2017-07-24 20:30;127,4
2017-07-24 20:45;128,5
2017-07-24 21:00;123,4
2017-07-24 21:15;123,9
2017-07-24 21:30;120,55
2017-07-24 21:45;115,75
2017-07-24 22:00;111,85
2017-07-24 22:15;113,95
2017-07-24 22:30;113
2017-07-24 22:45;112,7
2017-07-24 23:00;114,4
2017-07-24 23:15;109,7
2017-07-24 23:30;111,15
2017-07-24 23:45;108,8
2017-07-25 00:00;108,85
2017-07-25 00:15;110,25
2017-07-25 00:30;111,2
2017-07-25 00:45;104,2
2017-07-25 01:00;105,2
2017-07-25 01:15;102,75
2017-07-25 01:30;103
2017-07-25 01:45;102,3
2017-07-25 02:00;101,3
2017-07-25 02:15;98,6
2017-07-25 02:30;101,75
2017-07-25 02:45;100,5
2017-07-25 03:00;95,5
2017-07-25 03:15;91,2
2017-07-25 03:30;89,75
2017-07-25 03:45;89,75
2017-07-25 04:00;89,8
2017-07-25 04:15;90,8
2017-07-25 04:30;89,85
2017-07-25 04:45;89,1
2017-07-25 05:00;91,7
2017-07-25 05:15;90,8
2017-07-25 05:30;93,15
2017-07-25 05:45;91,15
2017-07-25 06:00;92,15
2017-07-25 06:15;90,15
2017-07-25 06:30;96,45
2017-07-25 06:45;100,6
2017-07-25 07:00;99,25
2017-07-25 07:15;106,5
2017-07-25 07:30;161,1
2017-07-25 07:45;147,3
2017-07-25 08:00;129,9
2017-07-25 08:15;140,25
2017-07-25 08:30;141,55
2017-07-25 08:45;149,05
2017-07-25 09:00;166,85
2017-07-25 09:15;178,6
2017-07-25 09:30;180,4
2017-07-25 09:45;184,5
2017-07-25 10:00;183
2017-07-25 10:15;230,2
2017-07-25 10:30;246,8
2017-07-25 10:45;236
2017-07-25 11:00;241
2017-07-25 11:15;266,6
2017-07-25 11:30;258,4
2017-07-25 11:45;265
2017-07-25 12:00;267,7
2017-07-25 12:15;266,1
2017-07-25 12:30;261,8
2017-07-25 12:45;260,45
2017-07-25 13:00;259,3
2017-07-25 13:15;315,35
2017-07-25 13:30;296
2017-07-25 13:45;269,1
2017-07-25 14:00;273,45
2017-07-25 14:15;270,05
2017-07-25 14:30;269
2017-07-25 14:45;252,3
2017-07-25 15:00;246,2
2017-07-25 15:15;230,45
2017-07-25 15:30;223,15
2017-07-25 15:45;213,65
2017-07-25 16:00;201,85
2017-07-25 16:15;192,3
2017-07-25 16:30;181,05
2017-07-25 16:45;178,65
2017-07-25 17:00;171,7
2017-07-25 17:15;159,6
2017-07-25 17:30;159,3
2017-07-25 17:45;159,85
2017-07-25 18:00;155,35
2017-07-25 18:15;153,55
2017-07-25 18:30;151,95
2017-07-25 18:45;150,1
2017-07-25 19:00;144,85
2017-07-25 19:15;139,55
2017-07-25 19:30;136,9
2017-07-25 19:45;137,15
2017-07-25 20:00;130,65
2017-07-25 20:15;131,5
2017-07-25 20:30;130,9
2017-07-25 20:45;131,55
2017-07-25 21:00;132,6
2017-07-25 21:15;132,4
2017-07-25 21:30;132,7
2017-07-25 21:45;124,25
2017-07-25 22:00;125,1
2017-07-25 22:15;133,05
2017-07-25 22:30;128,25
2017-07-25 22:45;127,1
2017-07-25 23:00;128,45
2017-07-25 23:15;116,8
2017-07-25 23:30;112,2
2017-07-25 23:45;112,7
2017-07-26 00:00;107,1
2017-07-26 00:15;100,45
2017-07-26 00:30;98,85
2017-07-26 00:45;99,45
2017-07-26 01:00;97,35
2017-07-26 01:15;98,15
2017-07-26 01:30;94,35
2017-07-26 01:45;97,75
2017-07-26 02:00;95,35
2017-07-26 02:15;95,65
2017-07-26 02:30;92,15
2017-07-26 02:45;93,4
2017-07-26 03:00;89,65
2017-07-26 03:15;91,45
2017-07-26 03:30;89,15
2017-07-26 03:45;91,7
2017-07-26 04:00;89,55
2017-07-26 04:15;90,1
2017-07-26 04:30;88,25
2017-07-26 04:45;90,1
2017-07-26 05:00;88,25
2017-07-26 05:15;90,65
2017-07-26 05:30;89
2017-07-26 05:45;89
2017-07-26 06:00;88,9
2017-07-26 06:15;87,3
2017-07-26 06:30;92
2017-07-26 06:45;99,6
2017-07-26 07:00;94,35
2017-07-26 07:15;102,6
2017-07-26 07:30;164,15
2017-07-26 07:45;153,7
2017-07-26 08:00;138,3
2017-07-26 08:15;152
2017-07-26 08:30;151,3
2017-07-26 08:45;162,85
2017-07-26 09:00;171,15
2017-07-26 09:15;190,2
2017-07-26 09:30;191,5
2017-07-26 09:45;194,25
2017-07-26 10:00;213,4
2017-07-26 10:15;214,2
2017-07-26 10:30;277,85
2017-07-26 10:45;265,2
2017-07-26 11:00;251,15
2017-07-26 11:15;262,65
2017-07-26 11:30;264,5
2017-07-26 11:45;268,9
2017-07-26 12:00;277,35
2017-07-26 12:15;283,65
2017-07-26 12:30;283,55
2017-07-26 12:45;278,15
2017-07-26 13:00;276,45
2017-07-26 13:15;274,1
2017-07-26 13:30;274,25
2017-07-26 13:45;262,7
2017-07-26 14:00;267,2
2017-07-26 14:15;266,6
2017-07-26 14:30;266,6
2017-07-26 14:45;251,5
2017-07-26 15:00;239,75
2017-07-26 15:15;223,2
2017-07-26 15:30;215,2
2017-07-26 15:45;202,25
2017-07-26 16:00;191,55
2017-07-26 16:15;186,65
2017-07-26 16:30;178,5
2017-07-26 16:45;174,8
2017-07-26 17:00;173,75
2017-07-26 17:15;161,95
2017-07-26 17:30;160,2
2017-07-26 17:45;159,5
2017-07-26 18:00;154,85
2017-07-26 18:15;153,5
2017-07-26 18:30;154,55
2017-07-26 18:45;152,85
2017-07-26 19:00;147,65
2017-07-26 19:15;138,3
2017-07-26 19:30;138,2
2017-07-26 19:45;138,7
2017-07-26 20:00;132,85
2017-07-26 20:15;127,55
2017-07-26 20:30;130,1
2017-07-26 20:45;135,6
2017-07-26 21:00;131
2017-07-26 21:15;124,7
2017-07-26 21:30;123,9
2017-07-26 21:45;120,7
2017-07-26 22:00;115
2017-07-26 22:15;118,8
2017-07-26 22:30;115,25
2017-07-26 22:45;110,45
2017-07-26 23:00;112,45
2017-07-26 23:15;103,75
2017-07-26 23:30;102,8
2017-07-26 23:45;104,45
2017-07-27 00:00;101,45
2017-07-27 00:15;103,45
2017-07-27 00:30;101,95
2017-07-27 00:45;101,95
2017-07-27 01:00;101,3
2017-07-27 01:15;100
2017-07-27 01:30;99,55
2017-07-27 01:45;98
2017-07-27 02:00;97,75
2017-07-27 02:15;96,1
2017-07-27 02:30;95,25
2017-07-27 02:45;96,1
2017-07-27 03:00;94,7
2017-07-27 03:15;94,5
2017-07-27 03:30;94,75
2017-07-27 03:45;93,55
2017-07-27 04:00;93,85
2017-07-27 04:15;93,35
2017-07-27 04:30;92,8
2017-07-27 04:45;89,6
2017-07-27 05:00;91,8
2017-07-27 05:15;91,5
2017-07-27 05:30;91,6
2017-07-27 05:45;91,75
2017-07-27 06:00;92,85
2017-07-27 06:15;88,9
2017-07-27 06:30;97
2017-07-27 06:45;101,5
2017-07-27 07:00;92,65
2017-07-27 07:15;102
2017-07-27 07:30;149,75
2017-07-27 07:45;139,4
2017-07-27 08:00;134,7
2017-07-27 08:15;143,45
2017-07-27 08:30;153,6
2017-07-27 08:45;151,75
2017-07-27 09:00;166,4
2017-07-27 09:15;175,4
2017-07-27 09:30;178
2017-07-27 09:45;192,25
2017-07-27 10:00;197,85
2017-07-27 10:15;200,5
2017-07-27 10:30;213,75
2017-07-27 10:45;222,4
2017-07-27 11:00;231,65
2017-07-27 11:15;233,5
2017-07-27 11:30;237,6
2017-07-27 11:45;240,2
2017-07-27 12:00;241,9
2017-07-27 12:15;246,85
2017-07-27 12:30;257,1
2017-07-27 12:45;256,45
2017-07-27 13:00;249,55
2017-07-27 13:15;254,25
2017-07-27 13:30;244,45
2017-07-27 13:45;252,2
2017-07-27 14:00;245,4
2017-07-27 14:15;237,45
2017-07-27 14:30;240,85
2017-07-27 14:45;223,6
2017-07-27 15:00;211,55
2017-07-27 15:15;199,9
2017-07-27 15:30;192,15
2017-07-27 15:45;185,9
2017-07-27 16:00;179,95
2017-07-27 16:15;174,65
2017-07-27 16:30;164,75
2017-07-27 16:45;162,8
2017-07-27 17:00;163,1
2017-07-27 17:15;148,7
2017-07-27 17:30;146,1
2017-07-27 17:45;145,1
2017-07-27 18:00;144,9
2017-07-27 18:15;144,2
2017-07-27 18:30;143,9
2017-07-27 18:45;142,7
2017-07-27 19:00;143,45
2017-07-27 19:15;138,1
2017-07-27 19:30;135,2
2017-07-27 19:45;135,7
2017-07-27 20:00;131,45
2017-07-27 20:15;125,8
2017-07-27 20:30;123,85
2017-07-27 20:45;120,55
2017-07-27 21:00;122,55
2017-07-27 21:15;124,1
2017-07-27 21:30;124,35
2017-07-27 21:45;121,1
2017-07-27 22:00;117,7
2017-07-27 22:15;123,4
2017-07-27 22:30;123,3
2017-07-27 22:45;116,4
2017-07-27 23:00;117,95
2017-07-27 23:15;107,45
2017-07-27 23:30;105,1
2017-07-27 23:45;103,2
2017-07-28 00:00;99,1
2017-07-28 00:15;98,3
2017-07-28 00:30;102,15
2017-07-28 00:45;100,6
2017-07-28 01:00;99,35
2017-07-28 01:15;91,6
2017-07-28 01:30;89,7
2017-07-28 01:45;89,35
2017-07-28 02:00;89,1
2017-07-28 02:15;88,4
2017-07-28 02:30;88,35
2017-07-28 02:45;87,05
2017-07-28 03:00;88,15
2017-07-28 03:15;87,2
2017-07-28 03:30;87,8
2017-07-28 03:45;88,1
2017-07-28 04:00;88,25
2017-07-28 04:15;87,05
2017-07-28 04:30;87
2017-07-28 04:45;86,4
2017-07-28 05:00;86,5
2017-07-28 05:15;89,15
2017-07-28 05:30;87,15
2017-07-28 05:45;86,5
2017-07-28 06:00;87,05
2017-07-28 06:15;85,65
2017-07-28 06:30;83,2
2017-07-28 06:45;94,7
2017-07-28 07:00;93,15
2017-07-28 07:15;93,65
2017-07-28 07:30;141,55
2017-07-28 07:45;130,4
2017-07-28 08:00;117,9
2017-07-28 08:15;122,85
2017-07-28 08:30;136,25
2017-07-28 08:45;148,6
2017-07-28 09:00;159,6
2017-07-28 09:15;160,9
2017-07-28 09:30;173,4
2017-07-28 09:45;176,75
2017-07-28 10:00;180,3
2017-07-28 10:15;179,7
2017-07-28 10:30;192,25
2017-07-28 10:45;199,7
2017-07-28 11:00;197,75
2017-07-28 11:15;213,15
2017-07-28 11:30;210,1
2017-07-28 11:45;216,2
2017-07-28 12:00;211,25
2017-07-28 12:15;206,5
2017-07-28 12:30;220,85
2017-07-28 12:45;218,65
2017-07-28 13:00;213
2017-07-28 13:15;206,5
2017-07-28 13:30;204,15
2017-07-28 13:45;213,65
2017-07-28 14:00;212,25
2017-07-28 14:15;204,75
2017-07-28 14:30;195,8
2017-07-28 14:45;192,45
2017-07-28 15:00;184,05
2017-07-28 15:15;179,6
2017-07-28 15:30;169,35
2017-07-28 15:45;164,4
2017-07-28 16:00;158,85
2017-07-28 16:15;156
2017-07-28 16:30;149,6
2017-07-28 16:45;144
2017-07-28 17:00;145,3
2017-07-28 17:15;141,75
2017-07-28 17:30;140,45
2017-07-28 17:45;136,25
2017-07-28 18:00;137,95
2017-07-28 18:15;135,9
2017-07-28 18:30;136,75
2017-07-28 18:45;129,55
2017-07-28 19:00;127,35
2017-07-28 19:15;124,8
2017-07-28 19:30;122,8
2017-07-28 19:45;126,85
2017-07-28 20:00;120,35
2017-07-28 20:15;122,25
2017-07-28 20:30;120,75
2017-07-28 20:45;122,75
2017-07-28 21:00;122,05
2017-07-28 21:15;121,4
2017-07-28 21:30;119,05
2017-07-28 21:45;117,75
2017-07-28 22:00;113,35
2017-07-28 22:15;117,95
2017-07-28 22:30;113,25
2017-07-28 22:45;110,55
2017-07-28 23:00;110,05
2017-07-28 23:15;99,05
2017-07-28 23:30;98,3
2017-07-28 23:45;100,95
2017-07-29 00:00;99
2017-07-29 00:15;101
2017-07-29 00:30;99,5
2017-07-29 00:45;100,5
2017-07-29 01:00;96,9
2017-07-29 01:15;92,5
2017-07-29 01:30;89,7
2017-07-29 01:45;87,3
2017-07-29 02:00;89,1
2017-07-29 02:15;87,4
2017-07-29 02:30;89,15
2017-07-29 02:45;87
2017-07-29 03:00;88,9
2017-07-29 03:15;86,95
2017-07-29 03:30;88,8
2017-07-29 03:45;86,75
2017-07-29 04:00;87,55
2017-07-29 04:15;88,25
2017-07-29 04:30;87,8
2017-07-29 04:45;88,15
2017-07-29 05:00;86,9
2017-07-29 05:15;86,65
2017-07-29 05:30;87,55
2017-07-29 05:45;86,6
2017-07-29 06:00;87,2
2017-07-29 06:15;84,7
2017-07-29 06:30;80,15
2017-07-29 06:45;79,95
2017-07-29 07:00;77,7
2017-07-29 07:15;78,9
2017-07-29 07:30;79,2
2017-07-29 07:45;80,85
2017-07-29 08:00;80,5
2017-07-29 08:15;79,7
2017-07-29 08:30;81,4
2017-07-29 08:45;80,85
2017-07-29 09:00;81,75
2017-07-29 09:15;82,3
2017-07-29 09:30;87,6
2017-07-29 09:45;86,25
2017-07-29 10:00;86,8
2017-07-29 10:15;85
2017-07-29 10:30;86,2
2017-07-29 10:45;87,15
2017-07-29 11:00;86,9
2017-07-29 11:15;90,35
2017-07-29 11:30;86,5
2017-07-29 11:45;88,95
2017-07-29 12:00;88,35
2017-07-29 12:15;91,25
2017-07-29 12:30;91,4
2017-07-29 12:45;90,55
2017-07-29 13:00;91,8
2017-07-29 13:15;89,55
2017-07-29 13:30;92,2
2017-07-29 13:45;91,1
2017-07-29 14:00;90,35
2017-07-29 14:15;90,3
2017-07-29 14:30;90,4
2017-07-29 14:45;88,8
2017-07-29 15:00;87,7
2017-07-29 15:15;87,3
2017-07-29 15:30;85,5
2017-07-29 15:45;88
2017-07-29 16:00;84,55
2017-07-29 16:15;87,25
2017-07-29 16:30;84,2
2017-07-29 16:45;87
2017-07-29 17:00;88,05
2017-07-29 17:15;89,55
2017-07-29 17:30;88,5
2017-07-29 17:45;91,65
2017-07-29 18:00;90
2017-07-29 18:15;88,45
2017-07-29 18:30;86,9
2017-07-29 18:45;92,75
2017-07-29 19:00;96,3
2017-07-29 19:15;93,7
2017-07-29 19:30;92,35
2017-07-29 19:45;89,9
2017-07-29 20:00;90,8
2017-07-29 20:15;90,8
2017-07-29 20:30;91
2017-07-29 20:45;92,6
2017-07-29 21:00;96,8
2017-07-29 21:15;93,45
2017-07-29 21:30;94,5
2017-07-29 21:45;91,8
2017-07-29 22:00;90,95
2017-07-29 22:15;99,25
2017-07-29 22:30;97,35
2017-07-29 22:45;95,55
2017-07-29 23:00;97,65
2017-07-29 23:15;90,2
2017-07-29 23:30;86,25
2017-07-29 23:45;88,7
2017-07-30 00:00;87
2017-07-30 00:15;87,65
2017-07-30 00:30;89,55
2017-07-30 00:45;87,3
2017-07-30 01:00;85,6
2017-07-30 01:15;84,9
2017-07-30 01:30;84,4
2017-07-30 01:45;85,15
2017-07-30 02:00;85,8
2017-07-30 02:15;83,4
2017-07-30 02:30;85,75
2017-07-30 02:45;83,9
2017-07-30 03:00;86
2017-07-30 03:15;84,65
2017-07-30 03:30;85,95
2017-07-30 03:45;84
2017-07-30 04:00;86,55
2017-07-30 04:15;85,1
2017-07-30 04:30;85,7
2017-07-30 04:45;86,6
2017-07-30 05:00;84,6
2017-07-30 05:15;86,4
2017-07-30 05:30;83,75
2017-07-30 05:45;85,2
2017-07-30 06:00;83,05
2017-07-30 06:15;83,1
2017-07-30 06:30;78,95
2017-07-30 06:45;79,45
2017-07-30 07:00;76,9
2017-07-30 07:15;77,1
2017-07-30 07:30;78,95
2017-07-30 07:45;78,95
2017-07-30 08:00;79,55
2017-07-30 08:15;78,9
2017-07-30 08:30;78,85
2017-07-30 08:45;81
2017-07-30 09:00;78,15
2017-07-30 09:15;82,5
2017-07-30 09:30;79,15
2017-07-30 09:45;82,75
2017-07-30 10:00;83,25
2017-07-30 10:15;83,95
2017-07-30 10:30;83,05
2017-07-30 10:45;81,4
2017-07-30 11:00;83,1
2017-07-30 11:15;82,45
2017-07-30 11:30;83,45
2017-07-30 11:45;85,7
2017-07-30 12:00;85,35
2017-07-30 12:15;89,3
2017-07-30 12:30;89,15
2017-07-30 12:45;87,3
2017-07-30 13:00;87,9
2017-07-30 13:15;89,4
2017-07-30 13:30;89,5
2017-07-30 13:45;88,95
2017-07-30 14:00;89,95
2017-07-30 14:15;89,3
2017-07-30 14:30;89,75
2017-07-30 14:45;90,1
2017-07-30 15:00;88,25
2017-07-30 15:15;88,8
2017-07-30 15:30;88,9
2017-07-30 15:45;90,1
2017-07-30 16:00;91,5
2017-07-30 16:15;91,05
2017-07-30 16:30;90,25
2017-07-30 16:45;90,4
2017-07-30 17:00;91,55
2017-07-30 17:15;89,6
2017-07-30 17:30;88,7
2017-07-30 17:45;90,4
2017-07-30 18:00;89,15
2017-07-30 18:15;91,4
2017-07-30 18:30;92,8
2017-07-30 18:45;94,75
2017-07-30 19:00;93,4
2017-07-30 19:15;94,8
2017-07-30 19:30;95,05
2017-07-30 19:45;95,9
2017-07-30 20:00;93,8
2017-07-30 20:15;95,8
2017-07-30 20:30;91,6
2017-07-30 20:45;96,25
2017-07-30 21:00;96,05
2017-07-30 21:15;95,1
2017-07-30 21:30;94,2
2017-07-30 21:45;94,85
2017-07-30 22:00;96,25
2017-07-30 22:15;103
2017-07-30 22:30;105,85
2017-07-30 22:45;100,2
2017-07-30 23:00;104,1
2017-07-30 23:15;95,85
2017-07-30 23:30;93,3
2017-07-30 23:45;92,95

